map of DLE home
DLE - Airport
Location
City:  Dole, Franche-Comté, France
Name:Tavaux
ICAO:LFGJ
IATA:DLE

Details
Type:Airport (Aerodrome, Airfield)
Use:Public/Civil
Latitude:47°02'34"N (47.042778)
Longitude:5°26'06"E (5.435000)
Elevation:645 ft (197 m)
Variation:1.46°E (WMM2015 magnetic declination)
0.12° annual change
Runways:2
Longest:7316 × 148 ft (2230 × 45 m), paved

Time
Time Zone:UTC+1 (DST+2)
Local Time:

Weather
METAR:LFGJ 240730Z AUTO 35006KT CAVOK 08/07 Q1019 TEMPO BKN003

Related Locations
Nearby:
Farthest:CHT: 12190 mi / 19618 km
Waitangi [Tuuta], CIT, NZ

Find:

   beyond  
but within

Other Information
Maps:
NOTAMs:
Links:
Sources:

  
flag of France
flag of Franche-Comté
  

Sectional Chart

Flight Planning
at skyvector.com

Satellite Image

Google Maps Satellite view

 

Copyright © 2004-2017 Karl L. Swartz. All rights reserved.
The Great Circle Mapper name and logo are trademarks of the Great Circle Mapper.
All other trademarks mentioned herein belong to their respective owners.
Please see credits for attibutions and further copyright information.

  Follow gcmap on Facebook Follow gcmap on Twitter Follow gcmap on Google+ GCmap on LinkedIn

hCard Microformat

Geo Microformat